Location: Haliburton Scout Reserve
(45.0900°N, 78.3200°W)
Time: 13:45:22
(UTC-04:00)

Courier 1B Rocket - Pass Details

Date: 15 February 2023
Orbit: 920 x 1202 km, 28.2° (Epoch: 27 March)

Event Time Altitude Azimuth Distance (km) Brightness Sun altitude
Rises 11:14:57 0° 214° (SW) 4,017 8.7 30.0°
Reaches altitude 10° 11:19:32 10° 190° (S) 3,004 8.6 30.3°
Maximum altitude 11:22:52 14° 163° (SSE) 2,701 9.2 30.5°
Drops below altitude 10° 11:26:07 10° 136° (SE) 2,914 8.6 30.7°
Sets 11:30:24 0° 112° (ESE) 3,804 8.6 30.9°
